Regional Weather Roundup
Issued by NWS

Home | Current Version | Previous Version | Graphics & Text | Print | Product List | Glossary On
Versions: 1 2 3 4 5 6 7 8 9 10 11 12 13 14 15 16 17 18 19 20 21 22 23 24 25 26 27 28 29 30 31 32 33 34 35 36 37 38 39 40 41 42 43 44 45 46 47 48 49 50
000
ASUS43 KIND 121909
RWRIN

WEATHER ROUNDUP FOR INDIANA
NATIONAL WEATHER SERVICE INDIANAPOLIS IN
200 PM EST TUE DEC 12 2017

NOTE: "FAIR" INDICATES FEW OR NO CLOUDS BELOW 12,000 FEET WITH NO
SIGNIFICANT WEATHER AND/OR OBSTRUCTIONS TO VISIBILITY.

* - STATION DOES NOT REPORT WEATHER SUCH AS PRECIPITATION OR FOG.

+ - STATION NOT QUALITY CONTROLLED BY THE NATIONAL WEATHER SERVICE.
    USE DATA WITH CAUTION...ESPECIALLY DEWPOINT AND RELATIVE
    HUMIDITY OBSERVATIONS.

INZ001>003-010>013-019-020-122000-
NORTHWEST INDIANA

CITY           SKY/WX    TMP DP  RH WIND       PRES   REMARKS
GARY /AIRPORT/ MOSUNNY   23   5  46 W14G25    30.06F WCI  11
KNOX *+        PTSUNNY   23  12  63 NW20G29   30.01S WCI   8
LA PORTE +     LGT SNOW  21  13  71 NW14G21   30.00S WCI   8
MICHIGAN CITY+ FLURRIES  23  12  63 NW14G22   30.02S WCI  11
MONTICELLO +   SUNNY     25   4  40 NW22      30.02F WCI  10
RENSSELAER +   MOSUNNY   25   1  36 W14G21    30.05S WCI  13
VALPARAISO     CLOUDY    22   9  57 NW14      30.02F WCI   9

$$

LMZ046-743>745-122000-
SOUTHERN LAKE MICHIGAN

STATION/POSITION TIME  TEMP    WIND        PRES    WAVE
                       AIR SEA DIR/SP/G            HT
                 (UTC) (F)     (DEG/KT/KT) (MB)    (FT)
BURNS HARBOR     1840   21     310/ 15/ 23 1017.6S
MICHIGAN CITY    1840   22     280/ 26/ 28   N/A

$$

INZ004-005-014>016-021>024-122000-
NORTH CENTRAL INDIANA

CITY           SKY/WX    TMP DP  RH WIND       PRES   REMARKS
ELKHART        LGT SNOW  21  16  79 NW15G26   29.96S VSB 1   WCI   8
GOSHEN         LGT SNOW  21  15  78 NW22G31   29.95S VSB 3/4 WCI   5
LOGANSPORT +   PTSUNNY   27   7  43 W16G22    30.01F WCI  14
PERU/GRISSOM   CLOUDY    24   9  51 NW21      29.97F WCI  10
ROCHESTER +    PTSUNNY   27  14  59 W13G24    29.99S WCI  16
SOUTH BEND     LGT SNOW  20  17  88 NW13      29.97F FOG     WCI   7
WARSAW +       FLURRIES  23  16  74 NW13      29.95S WCI  11

$$

INZ006>009-017-018-025>027-122000-
NORTHEAST INDIANA

CITY           SKY/WX    TMP DP  RH WIND       PRES   REMARKS
AUBURN +       PTSUNNY   23  12  63 W14       29.92S WCI  11
FORT WAYNE     FLURRIES  22  14  71 NW14      29.93F WCI   9
HUNTINGTON +   CLOUDY    23  16  74 W15G28    29.94F WCI  10
KENDALLVILLE + CLOUDY    20  12  71 N12G18    29.91S WCI   9

$$

INZ028-029-035-036-043>045-051>053-122000-
WEST CENTRAL INDIANA

CITY           SKY/WX    TMP DP  RH WIND       PRES   REMARKS
CRAWFORDSVL +  SUNNY     24   9  53 MISG      30.01
GREENCASTLE +  SUNNY     27   9  46 W10G17    30.04F WCI  17
LAFAYETTE      SUNNY     26   7  44 NW15G24   30.04F WCI  14
TERRE HAUTE    SUNNY     28   8  43 NW16G25   30.09F WCI  16

$$

INZ030>032-037>040-046>048-054>057-064-065-122000-
CENTRAL INDIANA

CITY           SKY/WX    TMP DP  RH WIND       PRES   REMARKS
COLUMBUS       MOSUNNY   28   5  37 NW16G25   30.02S WCI  17
FRANKFORT +    SUNNY     29  10  46 NW18G25   30.02F WCI  16
INDIANAPOLIS   MOSUNNY   27  10  49 W17G26    30.02F WCI  14
-EAGLE CREEK   MOSUNNY   27  10  49 W20G25    30.00F WCI  13
KOKOMO +       PTSUNNY   26  11  52 NW21G29   29.98F WCI  12
MARION +       CLOUDY    24  12  60 NW23G29   29.97S HAZE    WCI   9
MT COMFORT *+  PTSUNNY   28  14  54 W18G24    29.99F WCI  16
SHELBYVILLE    PTSUNNY   29   8  41 NW21G26   29.99F WCI  16
ZIONSVILLE +   MOSUNNY   26   8  48 W16       30.01S WCI  13

$$

INZ033-034-041-042-049-050-058-059-122000-
EAST CENTRAL INDIANA

CITY           SKY/WX    TMP DP  RH WIND       PRES   REMARKS
MUNCIE         PTSUNNY   28  11  48 NW20G29   29.95F WCI  15
RICHMOND +     PTSUNNY   23  14  68 W24G30    29.93S WCI   7

$$

INZ060-061-067>069-081>083-085>088-122000-
SOUTHWEST INDIANA

CITY           SKY/WX    TMP DP  RH WIND       PRES   REMARKS
EVANSVILLE     SUNNY     33  10  38 NW17G26   30.12F WCI  22
HUNTINGBURG +  SUNNY     32  13  45 NW16G23   30.09F WCI  21
WASHINGTON +   SUNNY     31  12  45 NW18      30.09F WCI  19

$$

INZ062-063-066-070>080-084-089>092-122000-
SOUTH CENTRAL AND SOUTHEAST INDIANA

CITY           SKY/WX    TMP DP  RH WIND       PRES   REMARKS
BEDFORD +      SUNNY     30   7  37 NW7G23    30.04S WCI  23
BLOOMINGTON    MOSUNNY   27   7  42 NW13G24   30.03F WCI  16
MADISON *+     CLOUDY    32   9  37 W13G21    30.01S WCI  22
NORTH VERNON + MOSUNNY   28   9  43 NW12G18   30.00F WCI  18
SEYMOUR +      MOSUNNY   32   9  37 NW21      30.02  WCI  20

$$





USA.gov is the U.S. government's official web portal to all federal, state and local government web resources and services.